DAL348 KSAN-KDTW

Flight info

Callsign DAL348
Flight time 3h 35m
Altitude 41000
Route ZZOOO4 TGOLD PXR J18 FTI EZEEE MMB PER SGF J98 FAM J78 PXV WWODD LECTR3
Aircraft A359/H-SDE2E3GHIJ3J4J5LM1ORWXY/LB1D1

Departure

Time 2026-04-25 23:18
Airport San Diego International Airport (KSAN)

Arrival

Time 2026-04-26 02:53
Airport Detroit Metropolitan Wayne County Airport (KDTW)
Time Latitude Longitude Altitude Speed Heading
2026-04-25 22:46 32.73261 -117.20541 32 ft 0 kts 161°
2026-04-25 22:59 32.73264 -117.20542 31 ft 1 kts 161°
2026-04-25 23:00 32.73268 -117.20544 31 ft 3 kts 162°
2026-04-25 23:00 32.73287 -117.20552 30 ft 3 kts 159°
2026-04-25 23:00 32.73306 -117.20561 30 ft 3 kts 154°
2026-04-25 23:00 32.73324 -117.20572 30 ft 3 kts 144°
2026-04-25 23:01 32.73336 -117.20583 30 ft 3 kts 131°
2026-04-25 23:01 32.73344 -117.20599 29 ft 4 kts 78°
2026-04-25 23:01 32.73336 -117.20620 28 ft 5 kts 63°
2026-04-25 23:01 32.73331 -117.20635 29 ft 4 kts 72°
2026-04-25 23:06 32.73338 -117.20609 29 ft 12 kts 69°
2026-04-25 23:07 32.73384 -117.20562 29 ft 9 kts 19°
2026-04-25 23:07 32.73414 -117.20559 28 ft 0 kts
2026-04-25 23:07 32.73415 -117.20559 28 ft 0 kts 360°
2026-04-25 23:10 32.73437 -117.20559 28 ft 10 kts
2026-04-25 23:10 32.73509 -117.20511 30 ft 14 kts 46°
2026-04-25 23:10 32.73577 -117.20416 31 ft 16 kts 61°
2026-04-25 23:10 32.73575 -117.20297 29 ft 14 kts 106°
2026-04-25 23:11 32.73548 -117.20186 31 ft 15 kts 106°
2026-04-25 23:11 32.73518 -117.20060 31 ft 17 kts 106°
2026-04-25 23:11 32.73483 -117.19914 33 ft 19 kts 106°
2026-04-25 23:11 32.73450 -117.19777 33 ft 18 kts 106°
2026-04-25 23:12 32.73413 -117.19626 33 ft 20 kts 106°
2026-04-25 23:12 32.73373 -117.19462 33 ft 21 kts 106°
2026-04-25 23:12 32.73330 -117.19283 30 ft 24 kts 106°
2026-04-25 23:12 32.73289 -117.19114 32 ft 20 kts 106°
2026-04-25 23:13 32.73249 -117.18951 33 ft 21 kts 106°
2026-04-25 23:13 32.73208 -117.18778 41 ft 22 kts 106°
2026-04-25 23:13 32.73165 -117.18601 35 ft 23 kts 106°
2026-04-25 23:13 32.73121 -117.18424 34 ft 20 kts 106°
2026-04-25 23:14 32.73081 -117.18260 33 ft 22 kts 106°
2026-04-25 23:14 32.73043 -117.18099 30 ft 17 kts 106°
2026-04-25 23:14 32.73009 -117.17961 31 ft 18 kts 106°
2026-04-25 23:14 32.72976 -117.17828 29 ft 11 kts 107°
2026-04-25 23:15 32.72956 -117.17748 29 ft 9 kts 106°
2026-04-25 23:15 32.72956 -117.17676 31 ft 9 kts 76°
2026-04-25 23:15 32.72979 -117.17606 33 ft 11 kts 59°
2026-04-25 23:15 32.73017 -117.17599 33 ft 7 kts 321°
2026-04-25 23:16 32.73040 -117.17668 32 ft 0 kts 286°
2026-04-25 23:17 32.73040 -117.17669 32 ft 2 kts 285°
2026-04-25 23:17 32.73105 -117.17940 30 ft 71 kts 286°
2026-04-25 23:18 32.73307 -117.18764 20 ft 134 kts 287°
2026-04-25 23:18 32.73611 -117.19999 305 ft 164 kts 283°
2026-04-25 23:18 32.73923 -117.21279 1150 ft 157 kts 283°
2026-04-25 23:18 32.74230 -117.22571 1695 ft 174 kts 283°
2026-04-25 23:19 32.74584 -117.24075 1909 ft 204 kts 283°
2026-04-25 23:19 32.74816 -117.25831 2314 ft 222 kts 266°
2026-04-25 23:19 32.74345 -117.27569 3088 ft 225 kts 236°
2026-04-25 23:19 32.73128 -117.28754 3811 ft 233 kts 203°
2026-04-25 23:20 32.71509 -117.28918 4551 ft 242 kts 170°
2026-04-25 23:20 32.69919 -117.28246 5306 ft 248 kts 158°
2026-04-25 23:20 32.68338 -117.27387 6153 ft 250 kts 158°
2026-04-25 23:20 32.66748 -117.26518 7025 ft 251 kts 159°
2026-04-25 23:21 32.65158 -117.25642 7851 ft 253 kts 157°
2026-04-25 23:21 32.63750 -117.24375 8690 ft 264 kts 136°
2026-04-25 23:21 32.62879 -117.22361 9275 ft 291 kts 108°
2026-04-25 23:21 32.62574 -117.19890 9815 ft 311 kts 99°
2026-04-25 23:22 32.62381 -117.17267 10355 ft 328 kts 99°
2026-04-25 23:22 32.62168 -117.14514 10683 ft 349 kts 100°
2026-04-25 23:22 32.61985 -117.11544 10975 ft 374 kts 94°
2026-04-25 23:23 32.63451 -117.05325 12007 ft 404 kts 70°
2026-04-25 23:23 32.64507 -117.02195 12653 ft 412 kts 70°
2026-04-25 23:23 32.65573 -116.99010 13334 ft 419 kts 71°
2026-04-25 23:23 32.66474 -116.95697 13969 ft 421 kts 83°
2026-04-25 23:24 32.66753 -116.92244 14593 ft 422 kts 92°
2026-04-25 23:24 32.66841 -116.88793 15202 ft 427 kts 93°
2026-04-25 23:24 32.66909 -116.85252 15837 ft 433 kts 93°
2026-04-25 23:24 32.66981 -116.81642 16464 ft 438 kts 93°
2026-04-25 23:25 32.67058 -116.77999 17129 ft 443 kts 93°
2026-04-25 23:25 32.67138 -116.74316 17769 ft 448 kts 92°
2026-04-25 23:25 32.67122 -116.70602 18387 ft 451 kts 96°
2026-04-25 23:25 32.67067 -116.68119 18744 ft 454 kts 96°
2026-04-25 23:26 32.66951 -116.63072 19520 ft 460 kts 96°
2026-04-25 23:26 32.66876 -116.59258 20092 ft 464 kts 96°
2026-04-25 23:26 32.66806 -116.55460 20662 ft 467 kts 96°
2026-04-25 23:26 32.66734 -116.51568 21263 ft 472 kts 96°
2026-04-25 23:27 32.66666 -116.47652 21831 ft 476 kts 96°
2026-04-25 23:27 32.66616 -116.43683 22415 ft 482 kts 94°
2026-04-25 23:27 32.66826 -116.39675 23019 ft 489 kts 88°
2026-04-25 23:27 32.67179 -116.35684 23586 ft 494 kts 87°
2026-04-25 23:28 32.67558 -116.31605 24072 ft 499 kts 88°
2026-04-25 23:28 32.67937 -116.27493 24562 ft 503 kts 88°
2026-04-25 23:28 32.68315 -116.23353 25041 ft 507 kts 88°
2026-04-25 23:28 32.68567 -116.20581 25375 ft 509 kts 88°
2026-04-25 23:29 32.68945 -116.16379 25885 ft 513 kts 88°
2026-04-25 23:29 32.69325 -116.12131 26353 ft 518 kts 88°
2026-04-25 23:29 32.69705 -116.07869 26864 ft 521 kts 88°
2026-04-25 23:29 32.70083 -116.03610 27333 ft 525 kts 88°
2026-04-25 23:30 32.70476 -115.99272 27737 ft 530 kts 88°
2026-04-25 23:30 32.70883 -115.94901 28150 ft 534 kts 88°
2026-04-25 23:30 32.71292 -115.90497 28594 ft 537 kts 88°
2026-04-25 23:30 32.71701 -115.86073 29038 ft 541 kts 88°
2026-04-25 23:31 32.72106 -115.81661 29455 ft 545 kts 88°
2026-04-25 23:31 32.72519 -115.77151 29878 ft 548 kts 88°
2026-04-25 23:31 32.72931 -115.72627 30216 ft 552 kts 88°
2026-04-25 23:31 32.73343 -115.68078 30461 ft 556 kts 88°
2026-04-25 23:32 32.73758 -115.63474 30697 ft 562 kts 88°
2026-04-25 23:32 32.74168 -115.58903 30981 ft 565 kts 88°
2026-04-25 23:32 32.74586 -115.54235 31274 ft 568 kts 88°
2026-04-25 23:32 32.75002 -115.49547 31552 ft 571 kts 88°
2026-04-25 23:33 32.75204 -115.44828 31815 ft 571 kts 94°
2026-04-25 23:33 32.75265 -115.40084 32067 ft 574 kts 95°
2026-04-25 23:33 32.75328 -115.35319 32349 ft 577 kts 94°
2026-04-25 23:33 32.75408 -115.30603 32700 ft 577 kts 94°
2026-04-25 23:34 32.75502 -115.25814 33052 ft 579 kts 94°
2026-04-25 23:34 32.75602 -115.21030 33397 ft 580 kts 94°
2026-04-25 23:34 32.75705 -115.16224 33730 ft 580 kts 94°
2026-04-25 23:34 32.75808 -115.11427 34031 ft 581 kts 94°
2026-04-25 23:35 32.75911 -115.06629 34352 ft 581 kts 94°
2026-04-25 23:35 32.76012 -115.01878 34668 ft 580 kts 94°
2026-04-25 23:35 32.76111 -114.97080 34948 ft 580 kts 94°
2026-04-25 23:35 32.76209 -114.92270 35235 ft 580 kts 94°
2026-04-25 23:36 32.76305 -114.87476 35528 ft 580 kts 94°
2026-04-25 23:36 32.76399 -114.82672 35824 ft 580 kts 94°
2026-04-25 23:36 32.76490 -114.77942 36118 ft 580 kts 94°
2026-04-25 23:36 32.76581 -114.73151 36407 ft 580 kts 94°
2026-04-25 23:37 32.76670 -114.68354 36668 ft 579 kts 94°
2026-04-25 23:37 32.76757 -114.63555 36938 ft 579 kts 94°
2026-04-25 23:37 32.76842 -114.58768 37205 ft 579 kts 94°
2026-04-25 23:37 32.76917 -114.53972 37450 ft 579 kts 95°
2026-04-25 23:38 32.76981 -114.49188 37681 ft 578 kts 95°
2026-04-25 23:38 32.77043 -114.44467 37934 ft 578 kts 95°
2026-04-25 23:38 32.77104 -114.39685 38180 ft 578 kts 95°
2026-04-25 23:38 32.77165 -114.34886 38364 ft 578 kts 95°
2026-04-25 23:39 32.77224 -114.30093 38520 ft 580 kts 95°
2026-04-25 23:39 32.77281 -114.25357 38679 ft 580 kts 95°
2026-04-25 23:39 32.77338 -114.20562 38867 ft 580 kts 95°
2026-04-25 23:39 32.77393 -114.15770 39020 ft 580 kts 95°
2026-04-25 23:40 32.77446 -114.10966 39171 ft 580 kts 95°
2026-04-25 23:40 32.77498 -114.06159 39321 ft 580 kts 95°
2026-04-25 23:40 32.77549 -114.01416 39469 ft 580 kts 94°
2026-04-25 23:40 32.77755 -113.96595 39599 ft 585 kts 86°
2026-04-25 23:41 32.78345 -113.91784 39756 ft 587 kts 84°
2026-04-25 23:41 32.79033 -113.86984 39896 ft 587 kts 83°
2026-04-25 23:41 32.79721 -113.82265 40032 ft 587 kts 83°
2026-04-25 23:41 32.80415 -113.77481 40168 ft 587 kts 83°
2026-04-25 23:42 32.81107 -113.72672 40272 ft 588 kts 83°
2026-04-25 23:42 32.83397 -113.63333 40450 ft 592 kts 70°
2026-04-25 23:42 32.84869 -113.58746 40585 ft 592 kts 69°
2026-04-25 23:43 32.86355 -113.54163 40699 ft 592 kts 69°
2026-04-25 23:43 32.89309 -113.44996 40802 ft 592 kts 69°
2026-04-25 23:44 32.92227 -113.35874 40800 ft 592 kts 69°
2026-04-25 23:44 32.95149 -113.26700 40802 ft 592 kts 69°
2026-04-25 23:45 32.98065 -113.17514 40802 ft 592 kts 70°
2026-04-25 23:45 33.00962 -113.08364 40795 ft 592 kts 69°
2026-04-25 23:46 33.03869 -112.99152 40807 ft 592 kts 69°
2026-04-25 23:46 33.06754 -112.89983 40803 ft 592 kts 70°
2026-04-25 23:47 33.09639 -112.80788 40800 ft 591 kts 70°
2026-04-25 23:47 33.12591 -112.71663 40806 ft 591 kts 64°
2026-04-25 23:48 33.16116 -112.62786 40809 ft 590 kts 62°
2026-04-25 23:48 33.19795 -112.54050 40810 ft 590 kts 62°
2026-04-25 23:49 33.23482 -112.45280 40820 ft 590 kts 62°
2026-04-25 23:49 33.27114 -112.36529 40831 ft 589 kts 62°
2026-04-25 23:50 33.30740 -112.27725 40834 ft 589 kts 62°
2026-04-25 23:50 33.34334 -112.18971 40826 ft 589 kts 62°
2026-04-25 23:51 33.37954 -112.10139 40815 ft 589 kts 62°
2026-04-25 23:51 33.41533 -112.01386 40823 ft 589 kts 62°
2026-04-25 23:52 33.45092 -111.92545 40826 ft 589 kts 64°
2026-04-25 23:52 33.48375 -111.83522 40841 ft 589 kts 66°
2026-04-25 23:53 33.51561 -111.74524 40840 ft 589 kts 66°
2026-04-25 23:53 33.54798 -111.65494 40853 ft 588 kts 65°
2026-04-25 23:54 33.58057 -111.56489 40828 ft 587 kts 65°
2026-04-25 23:54 33.61290 -111.47554 40802 ft 587 kts 65°
2026-04-25 23:55 33.64547 -111.38524 40816 ft 587 kts 65°
2026-04-25 23:55 33.67777 -111.29537 40814 ft 587 kts 65°
2026-04-25 23:56 33.70989 -111.20582 40820 ft 586 kts 66°
2026-04-25 23:56 33.74205 -111.11573 40817 ft 587 kts 65°
2026-04-25 23:57 33.77419 -111.02544 40824 ft 586 kts 65°
2026-04-25 23:57 33.80604 -110.93575 40824 ft 585 kts 66°
2026-04-25 23:58 33.83796 -110.84564 40840 ft 585 kts 66°
2026-04-25 23:58 33.86979 -110.75570 40836 ft 585 kts 65°
2026-04-25 23:59 33.90150 -110.66563 40843 ft 584 kts 66°
2026-04-25 23:59 33.93324 -110.57518 40840 ft 584 kts 66°
2026-04-26 00:00 33.96460 -110.48560 40846 ft 584 kts 66°
2026-04-26 00:00 33.99616 -110.39528 40847 ft 584 kts 65°
2026-04-26 00:01 34.02759 -110.30517 40849 ft 584 kts 65°
2026-04-26 00:01 34.05887 -110.21510 40896 ft 583 kts 66°
2026-04-26 00:02 34.09020 -110.12454 40939 ft 583 kts 66°
2026-04-26 00:02 34.12123 -110.03462 40979 ft 583 kts 66°
2026-04-26 00:03 34.15240 -109.94410 40995 ft 583 kts 66°
2026-04-26 00:03 34.18336 -109.85391 40977 ft 583 kts 66°
2026-04-26 00:04 34.21436 -109.76337 40935 ft 583 kts 66°
2026-04-26 00:04 34.24536 -109.67255 40850 ft 583 kts 66°
2026-04-26 00:05 34.27609 -109.58239 40887 ft 583 kts 66°
2026-04-26 00:05 34.30691 -109.49161 40913 ft 583 kts 66°
2026-04-26 00:06 34.33764 -109.40069 40924 ft 583 kts 66°
2026-04-26 00:06 34.36817 -109.31017 40907 ft 584 kts 66°
2026-04-26 00:07 34.39888 -109.21888 40863 ft 584 kts 66°
2026-04-26 00:07 34.42930 -109.12812 40805 ft 584 kts 66°
2026-04-26 00:08 34.45639 -109.03514 40828 ft 584 kts 71°
2026-04-26 00:08 34.48107 -108.94115 40790 ft 584 kts 71°
2026-04-26 00:09 34.50602 -108.84745 40790 ft 584 kts 70°
2026-04-26 00:09 34.53139 -108.75438 40784 ft 583 kts 70°
2026-04-26 00:10 34.55701 -108.66091 40803 ft 580 kts 70°
2026-04-26 00:10 34.58229 -108.56839 40808 ft 580 kts 70°
2026-04-26 00:11 34.60755 -108.47549 40807 ft 580 kts 70°
2026-04-26 00:11 34.63273 -108.38250 40805 ft 579 kts 70°
2026-04-26 00:12 34.65781 -108.28953 40813 ft 578 kts 70°
2026-04-26 00:12 34.68277 -108.19666 40810 ft 578 kts 70°
2026-04-26 00:13 34.70753 -108.10430 40825 ft 578 kts 70°
2026-04-26 00:13 34.73237 -108.01126 40816 ft 578 kts 70°
2026-04-26 00:14 34.75714 -107.91820 40814 ft 578 kts 70°
2026-04-26 00:14 34.78188 -107.82494 40818 ft 578 kts 70°
2026-04-26 00:15 34.80636 -107.73231 40807 ft 578 kts 70°
2026-04-26 00:15 34.83092 -107.63904 40798 ft 578 kts 70°
2026-04-26 00:16 34.85539 -107.54581 40789 ft 577 kts 70°
2026-04-26 00:16 34.87970 -107.45283 40775 ft 578 kts 70°
2026-04-26 00:17 34.89996 -107.37513 40779 ft 578 kts 70°
2026-04-26 00:17 34.92431 -107.28147 40745 ft 579 kts 70°
2026-04-26 00:18 34.94847 -107.18814 40728 ft 580 kts 70°
2026-04-26 00:18 34.97271 -107.09419 40730 ft 580 kts 70°
2026-04-26 00:19 34.99676 -107.00065 40715 ft 579 kts 70°
2026-04-26 00:19 35.02081 -106.90677 40706 ft 577 kts 70°
2026-04-26 00:19 35.03265 -106.86044 40913 ft 577 kts 70°
2026-04-26 00:20 35.04595 -106.81418 40937 ft 574 kts 63°
2026-04-26 00:20 35.07787 -106.72465 40963 ft 573 kts 62°
2026-04-26 00:21 35.11075 -106.63651 40915 ft 572 kts 62°
2026-04-26 00:21 35.14393 -106.54808 40896 ft 572 kts 62°
2026-04-26 00:21 35.16042 -106.50392 40716 ft 572 kts 62°
2026-04-26 00:22 35.17695 -106.45947 40726 ft 572 kts 62°
2026-04-26 00:22 35.20957 -106.37145 40717 ft 572 kts 62°
2026-04-26 00:23 35.24232 -106.28274 40721 ft 571 kts 62°
2026-04-26 00:23 35.27505 -106.19378 40727 ft 570 kts 62°
2026-04-26 00:24 35.30739 -106.10569 40759 ft 570 kts 62°
2026-04-26 00:24 35.33985 -106.01704 40785 ft 570 kts 62°
2026-04-26 00:25 35.37231 -105.92813 40729 ft 569 kts 62°
2026-04-26 00:25 35.40439 -105.84002 40728 ft 568 kts 62°
2026-04-26 00:26 35.43659 -105.75134 40733 ft 568 kts 62°
2026-04-26 00:26 35.46852 -105.66313 40729 ft 568 kts 62°
2026-04-26 00:27 35.50052 -105.57449 40718 ft 566 kts 62°
2026-04-26 00:27 35.53225 -105.48635 40754 ft 565 kts 62°
2026-04-26 00:28 35.56406 -105.39777 40811 ft 565 kts 62°
2026-04-26 00:28 35.59551 -105.30995 40874 ft 565 kts 62°
2026-04-26 00:29 35.62721 -105.22118 40923 ft 565 kts 62°
2026-04-26 00:29 35.65423 -105.13076 40925 ft 571 kts 76°
2026-04-26 00:30 35.66404 -105.03367 40924 ft 573 kts 85°
2026-04-26 00:30 35.66697 -104.98478 40672 ft 573 kts 86°
2026-04-26 00:30 35.66943 -104.93574 40672 ft 573 kts 86°
2026-04-26 00:31 35.67406 -104.83756 40665 ft 574 kts 86°
2026-04-26 00:31 35.67890 -104.73978 40664 ft 575 kts 86°
2026-04-26 00:32 35.68394 -104.64141 40658 ft 575 kts 86°
2026-04-26 00:32 35.69145 -104.49436 40651 ft 575 kts 86°
2026-04-26 00:33 35.69629 -104.39654 40654 ft 575 kts 86°
2026-04-26 00:33 35.70110 -104.29826 40647 ft 575 kts 86°
2026-04-26 00:34 35.70585 -104.19973 40660 ft 575 kts 86°
2026-04-26 00:34 35.71051 -104.10132 40644 ft 576 kts 86°
2026-04-26 00:35 35.71508 -104.00274 40644 ft 576 kts 86°
2026-04-26 00:35 35.71955 -103.90471 40644 ft 576 kts 86°
2026-04-26 00:36 35.72397 -103.80602 40647 ft 575 kts 86°
2026-04-26 00:36 35.72828 -103.70810 40647 ft 575 kts 86°
2026-04-26 00:37 35.73252 -103.60969 40648 ft 575 kts 86°
2026-04-26 00:37 35.73668 -103.51128 40648 ft 575 kts 86°
2026-04-26 00:38 35.74075 -103.41323 40652 ft 576 kts 86°
2026-04-26 00:38 35.74476 -103.31461 40655 ft 576 kts 86°
2026-04-26 00:39 35.74868 -103.21616 40656 ft 576 kts 86°
2026-04-26 00:39 35.75252 -103.11809 40655 ft 575 kts 86°
2026-04-26 00:40 35.75629 -103.01936 40664 ft 575 kts 86°
2026-04-26 00:40 35.75996 -102.92134 40664 ft 574 kts 86°
2026-04-26 00:41 35.76356 -102.82287 40670 ft 574 kts 86°
2026-04-26 00:41 35.76706 -102.72498 40676 ft 573 kts 86°
2026-04-26 00:42 35.77047 -102.62724 40678 ft 570 kts 86°
2026-04-26 00:42 35.77378 -102.53027 40690 ft 569 kts 86°
2026-04-26 00:43 35.77704 -102.43268 40700 ft 569 kts 86°
2026-04-26 00:43 35.78022 -102.33527 40701 ft 568 kts 86°
2026-04-26 00:44 35.78330 -102.23798 40713 ft 567 kts 86°
2026-04-26 00:44 35.78630 -102.14132 40809 ft 567 kts 86°
2026-04-26 00:45 35.78923 -102.04391 40822 ft 567 kts 86°
2026-04-26 00:45 35.79206 -101.94738 40821 ft 568 kts 86°
2026-04-26 00:46 35.79485 -101.84984 40801 ft 569 kts 86°
2026-04-26 00:46 35.79754 -101.75277 40778 ft 569 kts 86°
2026-04-26 00:47 35.80016 -101.65502 40767 ft 569 kts 86°
2026-04-26 00:47 35.80269 -101.55813 40782 ft 569 kts 86°
2026-04-26 00:48 35.80516 -101.46056 40796 ft 569 kts 86°
2026-04-26 00:48 35.81628 -101.36504 40801 ft 561 kts 68°
2026-04-26 00:49 35.84468 -101.27657 40784 ft 555 kts 61°
2026-04-26 00:49 35.87639 -101.18977 40733 ft 553 kts 60°
2026-04-26 00:50 35.90841 -101.10333 40735 ft 553 kts 60°
2026-04-26 00:50 35.94005 -101.01678 40735 ft 553 kts 60°
2026-04-26 00:51 35.97128 -100.93046 40735 ft 553 kts 60°
2026-04-26 00:51 36.00261 -100.84345 40733 ft 553 kts 60°
2026-04-26 00:52 36.03365 -100.75700 40740 ft 553 kts 61°
2026-04-26 00:52 36.06481 -100.67001 40744 ft 552 kts 61°
2026-04-26 00:53 36.09593 -100.58290 40753 ft 552 kts 61°
2026-04-26 00:53 36.12678 -100.49632 40752 ft 552 kts 61°
2026-04-26 00:54 36.15769 -100.40932 40748 ft 551 kts 61°
2026-04-26 00:54 36.18842 -100.32261 40742 ft 551 kts 61°
2026-04-26 00:55 36.21925 -100.23536 40741 ft 552 kts 61°
2026-04-26 00:55 36.24974 -100.14879 40740 ft 551 kts 61°
2026-04-26 00:56 36.28038 -100.06155 40739 ft 550 kts 61°
2026-04-26 00:56 36.31074 -99.97489 40738 ft 550 kts 61°
2026-04-26 00:57 36.33997 -99.88700 40770 ft 554 kts 68°
2026-04-26 00:57 36.35809 -99.79361 40744 ft 557 kts 75°
2026-04-26 00:58 36.37317 -99.69965 40744 ft 557 kts 76°
2026-04-26 00:58 36.38774 -99.60517 40825 ft 557 kts 76°
2026-04-26 00:59 36.40231 -99.51133 40821 ft 557 kts 76°
2026-04-26 00:59 36.41706 -99.41687 40813 ft 556 kts 76°
2026-04-26 01:00 36.43167 -99.32306 40745 ft 553 kts 76°
2026-04-26 01:00 36.44620 -99.22926 40748 ft 552 kts 76°
2026-04-26 01:01 36.46068 -99.13533 40736 ft 552 kts 76°
2026-04-26 01:01 36.47499 -99.04187 40746 ft 552 kts 76°
2026-04-26 01:02 36.48928 -98.94804 40741 ft 552 kts 76°
2026-04-26 01:02 36.50340 -98.85487 40760 ft 551 kts 76°
2026-04-26 01:03 36.51756 -98.76088 40747 ft 552 kts 76°
2026-04-26 01:03 36.53162 -98.66697 40754 ft 552 kts 76°
2026-04-26 01:04 36.54563 -98.57297 40759 ft 553 kts 76°
2026-04-26 01:04 36.55722 -98.49474 40766 ft 553 kts 76°
2026-04-26 01:05 36.57104 -98.40103 40768 ft 553 kts 76°
2026-04-26 01:05 36.58712 -98.29121 40768 ft 553 kts 76°
2026-04-26 01:06 36.59855 -98.21281 40771 ft 553 kts 76°
2026-04-26 01:06 36.61220 -98.11863 40772 ft 553 kts 76°
2026-04-26 01:07 36.62578 -98.02434 40772 ft 553 kts 76°
2026-04-26 01:07 36.63919 -97.93070 40764 ft 552 kts 76°
2026-04-26 01:08 36.65258 -97.83660 40769 ft 550 kts 76°
2026-04-26 01:08 36.66588 -97.74271 40769 ft 549 kts 76°
2026-04-26 01:09 36.67900 -97.64949 40776 ft 549 kts 77°
2026-04-26 01:09 36.69215 -97.55555 40768 ft 549 kts 77°
2026-04-26 01:10 36.70516 -97.46192 40818 ft 547 kts 77°
2026-04-26 01:10 36.71803 -97.36887 40824 ft 546 kts 77°
2026-04-26 01:11 36.73089 -97.27529 40819 ft 546 kts 77°
2026-04-26 01:11 36.74360 -97.18228 40810 ft 546 kts 77°
2026-04-26 01:12 36.75759 -97.08913 40813 ft 545 kts 74°
2026-04-26 01:12 36.77431 -96.99730 40813 ft 544 kts 73°
2026-04-26 01:13 36.79121 -96.90486 40803 ft 545 kts 74°
2026-04-26 01:13 36.80746 -96.81295 40793 ft 545 kts 74°
2026-04-26 01:14 36.82347 -96.72046 40779 ft 544 kts 74°
2026-04-26 01:14 36.83926 -96.62859 40774 ft 544 kts 74°
2026-04-26 01:15 36.85510 -96.53605 40774 ft 544 kts 75°
2026-04-26 01:15 36.87081 -96.44391 40780 ft 544 kts 75°
2026-04-26 01:16 36.88653 -96.35131 40785 ft 544 kts 75°
2026-04-26 01:16 36.90217 -96.25870 40788 ft 544 kts 75°
2026-04-26 01:17 36.91762 -96.16676 40792 ft 544 kts 75°
2026-04-26 01:17 36.93311 -96.07411 40806 ft 544 kts 75°
2026-04-26 01:18 36.94853 -95.98140 40798 ft 545 kts 75°
2026-04-26 01:18 36.96388 -95.88866 40826 ft 545 kts 75°
2026-04-26 01:19 36.97919 -95.79569 40829 ft 545 kts 75°
2026-04-26 01:19 36.99436 -95.70302 40841 ft 545 kts 75°
2026-04-26 01:20 37.00950 -95.61013 40844 ft 548 kts 76°
2026-04-26 01:20 37.02473 -95.51621 40858 ft 549 kts 76°
2026-04-26 01:21 37.03984 -95.42251 40852 ft 549 kts 76°
2026-04-26 01:21 37.05479 -95.32926 40857 ft 549 kts 76°
2026-04-26 01:22 37.06966 -95.23610 40826 ft 548 kts 76°
2026-04-26 01:22 37.08455 -95.14226 40823 ft 547 kts 76°
2026-04-26 01:23 37.09934 -95.04856 40828 ft 547 kts 76°
2026-04-26 01:23 37.11398 -94.95534 40828 ft 547 kts 76°
2026-04-26 01:24 37.12862 -94.86159 40833 ft 548 kts 76°
2026-04-26 01:24 37.14322 -94.76764 40837 ft 548 kts 76°
2026-04-26 01:25 37.15762 -94.67436 40865 ft 548 kts 76°
2026-04-26 01:25 37.17206 -94.58038 40869 ft 548 kts 76°
2026-04-26 01:26 37.18641 -94.48645 40869 ft 548 kts 76°
2026-04-26 01:26 37.20070 -94.39241 40871 ft 548 kts 76°
2026-04-26 01:27 37.21483 -94.29886 40859 ft 548 kts 76°
2026-04-26 01:27 37.22896 -94.20483 40850 ft 548 kts 76°
2026-04-26 01:28 37.24291 -94.11145 40844 ft 547 kts 76°
2026-04-26 01:28 37.25682 -94.01784 40840 ft 546 kts 76°
2026-04-26 01:29 37.27072 -93.92374 40839 ft 546 kts 76°
2026-04-26 01:29 37.28450 -93.82991 40841 ft 546 kts 76°
2026-04-26 01:30 37.29814 -93.73651 40838 ft 545 kts 76°
2026-04-26 01:30 37.31177 -93.64260 40835 ft 545 kts 76°
2026-04-26 01:31 37.32524 -93.54934 40840 ft 545 kts 77°
2026-04-26 01:31 37.33875 -93.45517 40834 ft 545 kts 77°
2026-04-26 01:32 37.35207 -93.36181 40833 ft 545 kts 77°
2026-04-26 01:32 37.36475 -93.26755 40836 ft 546 kts 78°
2026-04-26 01:33 37.37522 -93.17347 40836 ft 546 kts 79°
2026-04-26 01:33 37.38553 -93.07856 40838 ft 546 kts 79°
2026-04-26 01:34 37.39599 -92.98446 40842 ft 545 kts 79°
2026-04-26 01:34 37.40657 -92.89029 40849 ft 544 kts 79°
2026-04-26 01:35 37.41716 -92.79574 40870 ft 544 kts 79°
2026-04-26 01:35 37.42759 -92.70177 40878 ft 545 kts 79°
2026-04-26 01:36 37.43801 -92.60711 40881 ft 544 kts 79°
2026-04-26 01:37 37.45338 -92.46608 40886 ft 542 kts 80°
2026-04-26 01:37 37.46354 -92.37196 40874 ft 541 kts 80°
2026-04-26 01:38 37.47355 -92.27857 40872 ft 541 kts 80°
2026-04-26 01:38 37.48353 -92.18465 40864 ft 541 kts 80°
2026-04-26 01:39 37.49345 -92.09065 40868 ft 541 kts 80°
2026-04-26 01:39 37.50330 -91.99659 40867 ft 541 kts 80°
2026-04-26 01:40 37.51301 -91.90306 40884 ft 541 kts 80°
2026-04-26 01:40 37.52271 -91.80900 40899 ft 541 kts 80°
2026-04-26 01:41 37.53226 -91.71561 40902 ft 541 kts 80°
2026-04-26 01:41 37.54180 -91.62151 40908 ft 541 kts 80°
2026-04-26 01:42 37.55128 -91.52725 40922 ft 541 kts 80°
2026-04-26 01:42 37.56064 -91.43345 40920 ft 540 kts 80°
2026-04-26 01:43 37.56988 -91.34012 40927 ft 539 kts 81°
2026-04-26 01:43 37.57912 -91.24594 40924 ft 539 kts 81°
2026-04-26 01:44 37.58826 -91.15200 40926 ft 539 kts 81°
2026-04-26 01:44 37.59728 -91.05862 40928 ft 539 kts 81°
2026-04-26 01:45 37.60631 -90.96470 40938 ft 539 kts 81°
2026-04-26 01:45 37.61524 -90.87047 40944 ft 539 kts 81°
2026-04-26 01:46 37.62402 -90.77672 40942 ft 539 kts 81°
2026-04-26 01:46 37.63274 -90.68306 40941 ft 538 kts 81°
2026-04-26 01:47 37.64137 -90.58965 40937 ft 538 kts 81°
2026-04-26 01:47 37.64999 -90.49557 40932 ft 538 kts 81°
2026-04-26 01:48 37.65851 -90.40171 40939 ft 538 kts 81°
2026-04-26 01:48 37.66689 -90.30849 40941 ft 537 kts 81°
2026-04-26 01:49 37.67528 -90.21483 40939 ft 535 kts 81°
2026-04-26 01:49 37.68533 -90.12161 40943 ft 534 kts 79°
2026-04-26 01:50 37.69612 -90.02902 40945 ft 534 kts 79°
2026-04-26 01:50 37.70670 -89.93597 40929 ft 534 kts 79°
2026-04-26 01:51 37.71697 -89.84295 40954 ft 535 kts 79°
2026-04-26 01:51 37.72704 -89.75023 40930 ft 534 kts 80°
2026-04-26 01:52 37.73704 -89.65755 40944 ft 533 kts 80°
2026-04-26 01:52 37.74700 -89.56458 40931 ft 533 kts 80°
2026-04-26 01:53 37.75685 -89.47204 40927 ft 533 kts 80°
2026-04-26 01:53 37.76669 -89.37885 40924 ft 533 kts 80°
2026-04-26 01:54 37.77477 -89.30182 40924 ft 533 kts 80°
2026-04-26 01:54 37.78445 -89.20873 40927 ft 533 kts 80°
2026-04-26 01:55 37.79406 -89.11567 40925 ft 533 kts 80°
2026-04-26 01:55 37.80361 -89.02251 40943 ft 533 kts 81°
2026-04-26 01:56 37.81306 -88.92996 40943 ft 533 kts 80°
2026-04-26 01:56 37.82268 -88.83691 40939 ft 533 kts 80°
2026-04-26 01:57 37.83226 -88.74389 40939 ft 533 kts 81°
2026-04-26 01:57 37.84175 -88.65079 40943 ft 533 kts 81°
2026-04-26 01:58 37.85114 -88.55783 40944 ft 533 kts 81°
2026-04-26 01:58 37.86043 -88.46504 40952 ft 533 kts 81°
2026-04-26 01:59 37.86971 -88.37163 40940 ft 533 kts 81°
2026-04-26 01:59 37.87885 -88.27891 40934 ft 533 kts 81°
2026-04-26 02:00 37.88797 -88.18557 40929 ft 533 kts 81°
2026-04-26 02:00 37.89704 -88.09208 40929 ft 534 kts 81°
2026-04-26 02:01 37.90598 -87.99908 40932 ft 534 kts 81°
2026-04-26 02:01 37.91484 -87.90606 40941 ft 534 kts 81°
2026-04-26 02:02 37.92943 -87.81420 40947 ft 528 kts 67°
2026-04-26 02:02 37.96459 -87.73404 40947 ft 516 kts 46°
2026-04-26 02:02 37.98919 -87.70203 40956 ft 508 kts 35°
2026-04-26 02:03 38.01764 -87.67614 40951 ft 500 kts 25°
2026-04-26 02:03 38.04879 -87.65714 40952 ft 492 kts 14°
2026-04-26 02:03 38.08127 -87.64393 40944 ft 491 kts 13°
2026-04-26 02:04 38.14427 -87.60799 40951 ft 499 kts 22°
2026-04-26 02:04 38.20552 -87.56593 40947 ft 500 kts 24°
2026-04-26 02:05 38.26605 -87.52327 40942 ft 501 kts 24°
2026-04-26 02:05 38.32709 -87.47991 40938 ft 501 kts 24°
2026-04-26 02:06 38.38760 -87.43676 40939 ft 501 kts 24°
2026-04-26 02:06 38.44847 -87.39324 40942 ft 501 kts 24°
2026-04-26 02:07 38.50931 -87.34965 40943 ft 501 kts 24°
2026-04-26 02:07 38.57017 -87.30596 40943 ft 501 kts 24°
2026-04-26 02:08 38.63067 -87.26245 40951 ft 501 kts 24°
2026-04-26 02:08 38.69160 -87.21853 40947 ft 501 kts 25°
2026-04-26 02:09 38.75215 -87.17480 40943 ft 502 kts 25°
2026-04-26 02:09 38.81302 -87.13076 40941 ft 501 kts 25°
2026-04-26 02:10 38.87353 -87.08689 40955 ft 501 kts 25°
2026-04-26 02:10 38.93440 -87.04267 40943 ft 501 kts 25°
2026-04-26 02:11 38.99484 -86.99868 40948 ft 501 kts 25°
2026-04-26 02:11 39.05568 -86.95431 40957 ft 501 kts 25°
2026-04-26 02:12 39.11608 -86.91016 40961 ft 501 kts 25°
2026-04-26 02:12 39.17680 -86.86571 40974 ft 502 kts 25°
2026-04-26 02:13 39.23731 -86.82131 40970 ft 502 kts 25°
2026-04-26 02:13 39.29797 -86.77671 40753 ft 501 kts 25°
2026-04-26 02:13 39.32829 -86.75438 40515 ft 501 kts 26°
2026-04-26 02:14 39.35849 -86.73213 40268 ft 502 kts 26°
2026-04-26 02:14 39.38893 -86.70967 40033 ft 502 kts 26°
2026-04-26 02:14 39.41925 -86.68728 39801 ft 502 kts 26°
2026-04-26 02:14 39.44966 -86.66480 39560 ft 502 kts 26°
2026-04-26 02:15 39.47961 -86.64264 39328 ft 502 kts 26°
2026-04-26 02:15 39.50992 -86.62018 39119 ft 502 kts 26°
2026-04-26 02:15 39.54022 -86.59772 38900 ft 502 kts 26°
2026-04-26 02:15 39.57055 -86.57521 38663 ft 502 kts 26°
2026-04-26 02:16 39.60097 -86.55260 38389 ft 502 kts 26°
2026-04-26 02:16 39.63097 -86.53029 38105 ft 502 kts 26°
2026-04-26 02:16 39.66139 -86.50764 37829 ft 502 kts 27°
2026-04-26 02:16 39.69170 -86.48506 37556 ft 502 kts 27°
2026-04-26 02:17 39.72197 -86.46247 37290 ft 502 kts 27°
2026-04-26 02:17 39.75228 -86.43983 37027 ft 501 kts 27°
2026-04-26 02:17 39.78255 -86.41720 36772 ft 501 kts 27°
2026-04-26 02:17 39.81279 -86.39457 36514 ft 501 kts 27°
2026-04-26 02:18 39.84303 -86.37191 36257 ft 501 kts 27°
2026-04-26 02:18 39.87234 -86.34718 35993 ft 503 kts 35°
2026-04-26 02:18 39.89932 -86.31914 35751 ft 503 kts 38°
2026-04-26 02:18 39.92625 -86.28977 35515 ft 503 kts 38°
2026-04-26 02:19 39.95312 -86.26027 35282 ft 503 kts 38°
2026-04-26 02:19 39.97987 -86.23089 35028 ft 502 kts 38°
2026-04-26 02:19 40.00659 -86.20154 34786 ft 502 kts 38°
2026-04-26 02:19 40.03332 -86.17217 34550 ft 501 kts 38°
2026-04-26 02:20 40.05965 -86.14322 34313 ft 501 kts 38°
2026-04-26 02:20 40.08644 -86.11395 34053 ft 500 kts 37°
2026-04-26 02:20 40.11359 -86.08524 33786 ft 500 kts 37°
2026-04-26 02:20 40.14066 -86.05678 33512 ft 500 kts 37°
2026-04-26 02:21 40.16745 -86.02855 33249 ft 500 kts 37°
2026-04-26 02:21 40.19454 -85.99990 33005 ft 501 kts 37°
2026-04-26 02:21 40.22170 -85.97112 32956 ft 502 kts 37°
2026-04-26 02:22 40.27599 -85.91344 32937 ft 501 kts 37°
2026-04-26 02:22 40.32982 -85.85611 32913 ft 501 kts 37°
2026-04-26 02:23 40.38399 -85.79828 32897 ft 501 kts 37°
2026-04-26 02:23 40.43816 -85.74034 33054 ft 501 kts 37°
2026-04-26 02:24 40.49185 -85.68278 33054 ft 501 kts 37°
2026-04-26 02:24 40.54591 -85.62469 33054 ft 501 kts 37°
2026-04-26 02:25 40.59962 -85.56686 33048 ft 501 kts 37°
2026-04-26 02:25 40.65367 -85.50854 33040 ft 501 kts 37°
2026-04-26 02:26 40.70714 -85.44942 33033 ft 502 kts 40°
2026-04-26 02:26 40.75900 -85.38794 33026 ft 501 kts 40°
2026-04-26 02:27 40.81064 -85.32699 33070 ft 500 kts 39°
2026-04-26 02:27 40.86254 -85.26560 33073 ft 500 kts 41°
2026-04-26 02:27 40.88655 -85.23229 32818 ft 498 kts 46°
2026-04-26 02:28 40.90940 -85.19768 31792 ft 501 kts 47°
2026-04-26 02:28 40.93219 -85.16253 30779 ft 504 kts 47°
2026-04-26 02:28 40.95501 -85.12729 29773 ft 505 kts 47°
2026-04-26 02:28 40.97795 -85.09190 28760 ft 505 kts 47°
2026-04-26 02:29 41.00062 -85.05692 28103 ft 497 kts 47°
2026-04-26 02:29 41.02273 -85.02279 27442 ft 491 kts 48°
2026-04-26 02:29 41.04484 -84.98866 26767 ft 485 kts 47°
2026-04-26 02:29 41.06676 -84.95479 26082 ft 479 kts 48°
2026-04-26 02:30 41.08834 -84.92143 25426 ft 474 kts 48°
2026-04-26 02:30 41.10976 -84.88828 24758 ft 469 kts 49°
2026-04-26 02:30 41.13064 -84.85594 24118 ft 464 kts 49°
2026-04-26 02:30 41.15158 -84.82347 23418 ft 459 kts 49°
2026-04-26 02:31 41.17234 -84.79145 22783 ft 452 kts 48°
2026-04-26 02:31 41.19379 -84.76174 22501 ft 437 kts 45°
2026-04-26 02:31 41.21469 -84.73388 22260 ft 423 kts 45°
2026-04-26 02:31 41.23485 -84.70686 21847 ft 399 kts 45°
2026-04-26 02:32 41.25395 -84.68107 21138 ft 384 kts 45°
2026-04-26 02:32 41.27233 -84.65611 20905 ft 379 kts 45°
2026-04-26 02:32 41.29072 -84.63104 20462 ft 376 kts 45°
2026-04-26 02:32 41.30895 -84.60612 20048 ft 373 kts 45°
2026-04-26 02:33 41.32677 -84.58174 19670 ft 371 kts 45°
2026-04-26 02:33 41.34475 -84.55717 19119 ft 370 kts 45°
2026-04-26 02:33 41.36267 -84.53263 18662 ft 369 kts 45°
2026-04-26 02:33 41.38060 -84.50804 18158 ft 368 kts 45°
2026-04-26 02:34 41.39842 -84.48357 17683 ft 365 kts 45°
2026-04-26 02:34 41.41583 -84.45966 17292 ft 363 kts 46°
2026-04-26 02:34 41.43347 -84.43569 16909 ft 361 kts 43°
2026-04-26 02:34 41.45315 -84.41498 16519 ft 359 kts 33°
2026-04-26 02:35 41.47417 -84.39697 16130 ft 357 kts 31°
2026-04-26 02:35 41.49523 -84.37948 15731 ft 355 kts 31°
2026-04-26 02:35 41.51612 -84.36213 15369 ft 353 kts 31°
2026-04-26 02:35 41.53662 -84.34503 14996 ft 350 kts 31°
2026-04-26 02:36 41.55748 -84.32758 14623 ft 348 kts 32°
2026-04-26 02:36 41.57775 -84.31060 14255 ft 346 kts 32°
2026-04-26 02:36 41.59807 -84.29355 13872 ft 344 kts 32°
2026-04-26 02:36 41.61825 -84.27659 13485 ft 340 kts 31°
2026-04-26 02:37 41.63811 -84.25988 13116 ft 334 kts 31°
2026-04-26 02:37 41.65766 -84.24343 12788 ft 332 kts 31°
2026-04-26 02:37 41.67667 -84.22740 12583 ft 313 kts 31°
2026-04-26 02:37 41.69469 -84.21219 12337 ft 305 kts 31°
2026-04-26 02:38 41.71246 -84.19721 11985 ft 303 kts 31°
2026-04-26 02:38 41.73036 -84.18211 11674 ft 302 kts 30°
2026-04-26 02:38 41.74807 -84.16716 11274 ft 300 kts 31°
2026-04-26 02:38 41.76563 -84.15204 10889 ft 296 kts 31°
2026-04-26 02:39 41.78248 -84.13743 10646 ft 287 kts 31°
2026-04-26 02:39 41.79918 -84.12296 10421 ft 286 kts 31°
2026-04-26 02:39 41.81586 -84.10853 10044 ft 283 kts 31°
2026-04-26 02:39 41.83235 -84.09429 9585 ft 281 kts 31°
2026-04-26 02:40 41.84885 -84.08002 9247 ft 281 kts 31°
2026-04-26 02:40 41.86528 -84.06582 8947 ft 279 kts 31°
2026-04-26 02:40 41.88129 -84.05196 8650 ft 277 kts 31°
2026-04-26 02:40 41.89744 -84.03799 8359 ft 274 kts 31°
2026-04-26 02:41 41.91279 -84.02291 8071 ft 273 kts 41°
2026-04-26 02:41 41.92386 -84.00247 7762 ft 270 kts 61°
2026-04-26 02:41 41.93147 -83.97975 7414 ft 263 kts 65°
2026-04-26 02:41 41.93835 -83.95725 7086 ft 259 kts 65°
2026-04-26 02:42 41.94520 -83.93492 6760 ft 256 kts 65°
2026-04-26 02:42 41.95197 -83.91304 6443 ft 254 kts 64°
2026-04-26 02:42 41.95813 -83.89087 6113 ft 254 kts 71°
2026-04-26 02:42 41.95975 -83.87491 5907 ft 257 kts 87°
2026-04-26 02:43 41.95214 -83.82775 5777 ft 260 kts 101°
2026-04-26 02:43 41.94723 -83.80441 5664 ft 259 kts 102°
2026-04-26 02:43 41.94069 -83.78169 5519 ft 261 kts 110°
2026-04-26 02:44 41.93275 -83.75964 5346 ft 261 kts 111°
2026-04-26 02:44 41.92479 -83.73820 5053 ft 259 kts 112°
2026-04-26 02:44 41.91679 -83.71659 4696 ft 256 kts 111°
2026-04-26 02:44 41.90901 -83.69551 4509 ft 246 kts 111°
2026-04-26 02:45 41.90365 -83.67451 4349 ft 229 kts 91°
2026-04-26 02:45 41.90612 -83.65435 4105 ft 216 kts 63°
2026-04-26 02:45 41.91329 -83.63710 3986 ft 208 kts 56°
2026-04-26 02:45 41.92091 -83.62093 3973 ft 208 kts 56°
2026-04-26 02:46 41.92865 -83.60451 3971 ft 207 kts 56°
2026-04-26 02:46 41.93666 -83.58843 3967 ft 206 kts 50°
2026-04-26 02:46 41.94674 -83.57468 3966 ft 206 kts 39°
2026-04-26 02:46 41.95830 -83.56337 3868 ft 205 kts 32°
2026-04-26 02:47 41.97035 -83.55328 3751 ft 205 kts 32°
2026-04-26 02:47 41.98273 -83.54415 3643 ft 206 kts 27°
2026-04-26 02:47 41.99559 -83.53552 3549 ft 206 kts 28°
2026-04-26 02:47 42.00815 -83.52653 3460 ft 203 kts 29°
2026-04-26 02:48 42.02014 -83.51775 3384 ft 193 kts 29°
2026-04-26 02:48 42.03211 -83.50897 3285 ft 194 kts 30°
2026-04-26 02:48 42.04384 -83.50035 3184 ft 195 kts 30°
2026-04-26 02:48 42.05574 -83.49162 3077 ft 193 kts 30°
2026-04-26 02:49 42.06710 -83.48330 2990 ft 178 kts 30°
2026-04-26 02:49 42.07778 -83.47547 2963 ft 173 kts 30°
2026-04-26 02:49 42.08827 -83.46776 2961 ft 167 kts 30°
2026-04-26 02:49 42.09833 -83.46037 2965 ft 163 kts 30°
2026-04-26 02:50 42.10813 -83.45317 2826 ft 159 kts 30°
2026-04-26 02:50 42.11745 -83.44631 2620 ft 147 kts 30°
2026-04-26 02:50 42.12615 -83.43992 2417 ft 140 kts 30°
2026-04-26 02:50 42.13458 -83.43372 2235 ft 134 kts 30°
2026-04-26 02:51 42.14259 -83.42783 2058 ft 129 kts 29°
2026-04-26 02:51 42.15045 -83.42204 1890 ft 129 kts 30°
2026-04-26 02:51 42.15824 -83.41631 1720 ft 128 kts 29°
2026-04-26 02:51 42.16600 -83.41060 1513 ft 124 kts 30°
2026-04-26 02:52 42.17357 -83.40502 1351 ft 123 kts 28°
2026-04-26 02:52 42.18112 -83.39947 1179 ft 122 kts 28°
2026-04-26 02:52 42.18857 -83.39397 1006 ft 123 kts 28°
2026-04-26 02:52 42.19596 -83.38854 830 ft 122 kts 27°
2026-04-26 02:53 42.20343 -83.38304 683 ft 121 kts 28°
2026-04-26 02:53 42.21045 -83.37787 657 ft 109 kts 28°
2026-04-26 02:53 42.21558 -83.37414 651 ft 44 kts 28°
2026-04-26 02:53 42.21760 -83.37229 652 ft 31 kts 48°
2026-04-26 02:54 42.21831 -83.37029 656 ft 21 kts 69°
2026-04-26 02:54 42.21922 -83.36898 656 ft 19 kts 31°
2026-04-26 02:54 42.22014 -83.36825 655 ft 13 kts 34°
2026-04-26 02:54 42.22026 -83.36758 657 ft 9 kts 106°
2026-04-26 02:55 42.21972 -83.36619 658 ft 21 kts 119°
2026-04-26 02:55 42.21901 -83.36440 656 ft 23 kts 118°
2026-04-26 02:55 42.21831 -83.36273 656 ft 20 kts 116°
2026-04-26 02:55 42.21811 -83.36081 657 ft 22 kts 90°
2026-04-26 02:56 42.21813 -83.35893 654 ft 17 kts 87°
2026-04-26 02:56 42.21818 -83.35736 654 ft 17 kts 89°
2026-04-26 02:56 42.21820 -83.35580 655 ft 12 kts 89°
2026-04-26 02:56 42.21809 -83.35529 656 ft 6 kts 140°
2026-04-26 02:57 42.21698 -83.35515 651 ft 17 kts 180°
2026-04-26 02:57 42.21581 -83.35511 652 ft 16 kts 175°
2026-04-26 02:57 42.21470 -83.35529 655 ft 16 kts 204°
2026-04-26 02:57 42.21371 -83.35601 656 ft 17 kts 209°
2026-04-26 02:58 42.21258 -83.35686 656 ft 20 kts 208°
2026-04-26 02:58 42.21137 -83.35772 656 ft 17 kts 209°
2026-04-26 02:58 42.21059 -83.35829 656 ft 11 kts 208°
2026-04-26 02:58 42.21021 -83.35835 652 ft 3 kts 141°
2026-04-26 02:59 42.21000 -83.35794 656 ft 7 kts 122°
2026-04-26 02:59 42.20986 -83.35762 656 ft 0 kts 120°